Tacoma Narrows, WA
on Wednesday, January 9, 2013

Wednesday
Previous Day Next Day
Daily Summary
 ActualAverageRecord
Temperature
Mean Temperature °F °F  
Max Temperature 50°F 43°F 54°F (2003)
Min Temperature 36°F 36°F 28°F (2011)
Degree Days
Heating Degree Days 22    
Moisture
Dew Point 38°F   
Average Humidity 88    
Maximum Humidity 93    
Minimum Humidity 79    
Precipitation
Precipitation 0.87 in in in ()
Wind
Wind Speed 13 mph   
Max Wind Speed 20 mph   
Max Gust Speed 32 mph   
Visibility 8 miles   
Events Rain   
Averages and records for this station are not official NWS values.
Key: T is trace of precipitation, MM is missing value
Source: NWS Daily Summary
Seasonal Weather Averages
Time(PST)TemperatureDew PointHumidity Pressure Visibility Wind DirectionWind SpeedGust SpeedPrecipitationEvents Conditions
12:05 AM 50.0°F 46.4°F 87% 29.75 in 6.0 miles SSW 16.1 mph 26.5 mph 0.01 in Rain Light Rain
12:53 AM 48.9°F 46.0°F 90% 29.76 in 6.0 miles South 19.6 mph 31.1 mph 0.07 in Rain Light Rain
1:00 AM 50.0°F 46.4°F 87% 29.75 in 7.0 miles South 19.6 mph 32.2 mph 0.02 in Rain Light Rain
1:23 AM 48.2°F 46.4°F 93% 29.74 in 6.0 miles South 19.6 mph 31.1 mph 0.03 in Rain Light Rain
1:53 AM 48.9°F 46.0°F 90% 29.74 in 9.0 miles SSW 16.1 mph 29.9 mph 0.04 in Rain Light Rain
1:58 AM 48.2°F 46.4°F 93% 29.74 in 10.0 miles SSW 15.0 mph 24.2 mph 0.01 in Rain Light Rain
2:12 AM 46.4°F 44.6°F 93% 29.75 in 6.0 miles SW 12.7 mph 21.9 mph 0.04 in Rain Light Rain
2:24 AM 44.6°F 42.8°F 93% 29.75 in 2.5 miles WSW 11.5 mph 21.9 mph 0.13 in Rain Heavy Rain
2:36 AM 44.6°F 41.0°F 87% 29.74 in 3.0 miles West 11.5 mph 18.4 mph 0.19 in Rain Rain
2:45 AM 44.6°F 42.8°F 93% 29.74 in 4.0 miles West 6.9 mph 16.1 mph 0.22 in Rain Rain
2:53 AM 44.1°F 42.1°F 93% 29.75 in 4.0 miles West 8.1 mph - 0.25 in Rain Rain
3:00 AM 44.6°F 42.8°F 93% 29.73 in 4.0 miles West 6.9 mph - 0.02 in Rain Rain
3:53 AM 43.0°F 41.0°F 93% 29.73 in 8.0 miles WSW 10.4 mph 16.1 mph 0.11 in Rain Light Rain
4:08 AM 42.8°F 39.2°F 87% 29.72 in 9.0 miles WSW 8.1 mph - 0.01 in Rain Light Rain
4:16 AM 42.8°F 39.2°F 87% 29.72 in 7.0 miles SW 8.1 mph - 0.03 in Rain Light Rain
4:28 AM 42.8°F 39.2°F 87% 29.71 in 6.0 miles Variable 6.9 mph - 0.05 in Rain Light Rain
4:53 AM 42.1°F 39.0°F 89% 29.71 in 6.0 miles SW 5.8 mph - 0.09 in Rain Light Rain
5:21 AM 41.0°F 39.2°F 93% 29.69 in 5.0 miles Variable 6.9 mph - 0.08 in Rain Rain
5:53 AM 41.0°F 37.9°F 89% 29.70 in 6.0 miles SW 6.9 mph - 0.16 in Rain Light Rain
6:32 AM 41.0°F 37.4°F 87% 29.70 in 10.0 miles SSW 8.1 mph - 0.06 in Rain Light Rain
6:53 AM 39.9°F 37.0°F 89% 29.71 in 9.0 miles SSW 10.4 mph - 0.08 in Rain Light Rain
7:09 AM 39.2°F 37.4°F 93% 29.71 in 10.0 miles SSW 10.4 mph 17.3 mph 0.02 in Rain Light Rain
7:53 AM 39.9°F 37.0°F 89% 29.73 in 10.0 miles SSW 13.8 mph - 0.05 in Rain Light Rain
8:02 AM 39.2°F 37.4°F 93% 29.73 in 10.0 miles South 12.7 mph 20.7 mph 0.01 in Rain Light Rain
8:53 AM 39.9°F 36.0°F 86% 29.75 in 10.0 miles South 13.8 mph 20.7 mph 0.02 in Rain Light Rain
9:10 AM 39.2°F 37.4°F 93% 29.74 in 10.0 miles South 12.7 mph 20.7 mph 0.00 in   Overcast
9:53 AM 39.9°F 37.0°F 89% 29.75 in 10.0 miles South 10.4 mph - 0.00 in   Overcast
10:53 AM 41.0°F 37.9°F 89% 29.77 in 10.0 miles SSW 12.7 mph 21.9 mph N/A   Overcast
11:51 AM 42.8°F 37.4°F 81% 29.76 in 10.0 miles SSW 10.4 mph - N/A   Overcast
11:53 AM 42.1°F 37.9°F 85% 29.77 in 10.0 miles South 11.5 mph - N/A   Overcast
12:53 PM 42.1°F 37.9°F 85% 29.78 in 10.0 miles South 11.5 mph 24.2 mph N/A   Mostly Cloudy
1:22 PM 42.8°F 37.4°F 81% 29.78 in 10.0 miles South 13.8 mph - N/A   Mostly Cloudy
1:30 PM 41.0°F 37.4°F 87% 29.79 in 10.0 miles South 13.8 mph - N/A   Overcast
1:53 PM 42.1°F 37.9°F 85% 29.80 in 10.0 miles South 16.1 mph 28.8 mph N/A   Mostly Cloudy
2:53 PM 42.1°F 37.0°F 82% 29.82 in 10.0 miles SSW 17.3 mph 24.2 mph N/A   Mostly Cloudy
3:53 PM 41.0°F 36.0°F 82% 29.85 in 10.0 miles SSW 13.8 mph 21.9 mph N/A   Mostly Cloudy
4:53 PM 39.9°F 34.0°F 79% 29.87 in 10.0 miles SSW 16.1 mph 23.0 mph N/A   Partly Cloudy
5:53 PM 39.0°F 34.0°F 82% 29.88 in 10.0 miles South 15.0 mph - N/A   Partly Cloudy
6:53 PM 37.9°F 34.0°F 86% 29.90 in 10.0 miles South 11.5 mph - N/A   Partly Cloudy
7:53 PM 37.9°F 33.1°F 83% 29.91 in 10.0 miles South 10.4 mph - N/A   Clear
8:53 PM 37.0°F 32.0°F 82% 29.93 in 10.0 miles South 5.8 mph - N/A   Clear
9:19 PM 37.4°F 33.8°F 87% 29.92 in 10.0 miles South 12.7 mph - N/A   Partly Cloudy
9:37 PM 37.4°F 33.8°F 87% 29.93 in 10.0 miles South 9.2 mph 18.4 mph N/A   Mostly Cloudy
9:53 PM 37.0°F 33.1°F 86% 29.94 in 10.0 miles South 11.5 mph 19.6 mph N/A   Mostly Cloudy
10:08 PM 37.4°F 33.8°F 87% 29.94 in 10.0 miles SSW 6.9 mph - N/A   Mostly Cloudy
10:34 PM 37.4°F 33.8°F 87% 29.94 in 10.0 miles South 10.4 mph - N/A   Mostly Cloudy
10:50 PM 37.4°F 33.8°F 87% 29.94 in 10.0 miles Variable 3.5 mph - N/A   Mostly Cloudy
10:53 PM 37.0°F 33.1°F 86% 29.96 in 10.0 miles Calm Calm - N/A   Mostly Cloudy
11:06 PM 37.4°F 33.8°F 87% 29.95 in 10.0 miles Calm Calm - N/A   Mostly Cloudy
11:21 PM 37.4°F 33.8°F 87% 29.94 in 10.0 miles SSW 6.9 mph - N/A   Overcast
11:53 PM 36.0°F 33.1°F 89% 29.96 in 10.0 miles SSW 3.5 mph - N/A   Overcast
Moon Phase
Jan. 09 Jan. 11 Jan. 18 Jan. 26 Feb. 03
Sunrise:07:55 AM (PST) Moon Rise:05:41 AM (PST)1/9
Sunset:04:40 PM (PST) Moon Set:02:47 PM (PST)1/9

Copyright © 2014 The Weather Underground, Inc.